"Pseudo-MPEC" for P21ZSxr

Created 2024 Oct 4 21:22:25 UT using Find_Orb

Click here for an explanation of pseudo-MPECs

 
 Astrometry: 
     P21ZSxr* C2024 10 01.42482800 36 43.170+05 05 22.23   ~A1LM 22.15wXNEOCPF52
     P21ZSxr  C2024 10 01.43622200 36 44.669+05 05 13.75   ~A1LM 22.11wXNEOCPF52
     P21ZSxr  C2024 10 01.44763200 36 46.180+05 05 04.94   ~A1LM 22.14wXNEOCPF52
     P21ZSxr  C2024 10 01.51821200 36 55.683+05 04 09.96   ~A1MM 22.06GVNEOCPF51
     P21ZSxr  C2024 10 01.51885700 36 55.772+05 04 09.51   ~A1MM 22.16GVNEOCPF51

Station data:
(F51) Pan-STARRS 1, Haleakala  (N20.707234 W156.255910)  US/Hawaii.
   Observers J. Bulger, T. Lowe, A. Schultz, M. Willman. Measurers K.
   Chambers, S. Chastel, T. de Boer, L. Denneau, J. Fairlamb, H. Flewelling,
   M. Huber, C.-C. Lin, E. Magnier, Y. Ramanjooloo, R. Wainscoat, R. Weryk.
   1.8-m Ritchey-Chrétien + CCD.
(F52) Pan-STARRS 2, Haleakala  (N20.707382 W156.255910)  US/Hawaii.
   Observers J. Bulger, T. Dukes, T. Lowe, A. Schultz, M. Willman. Measurers
   K. Chambers, S. Chastel, T. de Boer, L. Denneau, J. Fairlamb, H.
   Flewelling, M. Huber, C.-C. Lin, E. Magnier, Y. Ramanjooloo, R. Wainscoat,
   R. Weryk. 1.8-m Ritchey-Chrétien + CCD.

Orbital elements:  P21ZSxr
   Perihelion 2024 Aug 19.50211 +/- 39.8 TT = 12:03:02 (JD 2460542.00211)
Epoch 2024 Oct  1.0 TT = JDT 2460584.5   Earth MOID: 0.0434   Ma: 0.0394
M  12.60205670 +/- 15               (J2000 ecliptic)             AutoNEOCP
n   0.29653368 +/- 0.214            Peri.  131.08691 +/- 51
a   2.22716995 +/- 1.07             Node   190.97060 +/- 21
e   0.5390904 +/- 0.208             Incl.    3.38973 +/- 1.8
P   3.32376                H 25.70  G  0.15   U 11.7  SR
q 1.02652395 +/- 0.181    Q 3.42781596 +/- 25.4
From 5 observations 2024 Oct. 1 (2.3 hr); mean residual 0".14
Residuals in arcseconds: 
241001 F52  .26+  .18-    241001 F52  .25-  .10+    241001 F51  .05+  .01+    
241001 F52  .08-  .11+    241001 F51  .03+  .05-    

Ephemerides (geocentric):
Date (UTC) HH   RA             Dec           delta  r     elong  mag " sig PA
---- --------  ------------   ------------  ------ ------ -----  --- --------
2024 10 04 21  00 44 39.323   +04 26 00.02  .17171 1.1718 179.6 22.3 3001  75
2024 10 04 22  00 44 44.385   +04 25 34.53  .17195 1.1721 179.6 22.3 3097  75
2024 10 04 23  00 44 49.432   +04 25 09.11  .17220 1.1723 179.6 22.3 3196  75
2024 10 05 00  00 44 54.465   +04 24 43.76  .17245 1.1725 179.6 22.3 3297  75
2024 10 05 01  00 44 59.483   +04 24 18.49  .17269 1.1728 179.6 22.3 3401  75
2024 10 05 02  00 45 04.487   +04 23 53.29  .17294 1.1730 179.6 22.3 3509  75
2024 10 05 03  00 45 09.476   +04 23 28.16  .17319 1.1732 179.6 22.3 3620  75
2024 10 05 04  00 45 14.451   +04 23 03.10  .17344 1.1735 179.6 22.3 3734  75
2024 10 05 05  00 45 19.412   +04 22 38.11  .17368 1.1737 179.5 22.3 3851  75
2024 10 05 06  00 45 24.359   +04 22 13.19  .17393 1.1739 179.5 22.3 3972  75
2024 10 05 07  00 45 29.291   +04 21 48.35  .17418 1.1742 179.5 22.3 4097  75
2024 10 05 08  00 45 34.209   +04 21 23.58  .17443 1.1744 179.5 22.4 4226  75
2024 10 05 09  00 45 39.114   +04 20 58.87  .17468 1.1746 179.5 22.4 4359  75
2024 10 05 10  00 45 44.004   +04 20 34.24  .17493 1.1749 179.5 22.4 4497  75
2024 10 05 11  00 45 48.880   +04 20 09.68  .17518 1.1751 179.4 22.4 4639  75
2024 10 05 12  00 45 53.742   +04 19 45.19  .17543 1.1754 179.4 22.4 4786  75
2024 10 05 13  00 45 58.591   +04 19 20.77  .17567 1.1756 179.4 22.4 4938  75
2024 10 05 14  00 46 03.426   +04 18 56.43  .17592 1.1758 179.4 22.4 5095  75
2024 10 05 15  00 46 08.247   +04 18 32.15  .17617 1.1761 179.4 22.4 5257  75
2024 10 05 16  00 46 13.055   +04 18 07.94  .17642 1.1763 179.3 22.4 5425  75
2024 10 05 17  00 46 17.848   +04 17 43.80  .17667 1.1765 179.3 22.4 5600  75
2024 10 05 18  00 46 22.629   +04 17 19.74  .17692 1.1768 179.3 22.4 5781  75
2024 10 05 19  00 46 27.396   +04 16 55.74  .17717 1.1770 179.3 22.4 5968  75
2024 10 05 20  00 46 32.149   +04 16 31.81  .17742 1.1773 179.2 22.4 6163  75
2024 10 05 21  00 46 36.889   +04 16 07.95  .17768 1.1775 179.2 22.4 6366  75
2024 10 05 22  00 46 41.616   +04 15 44.16  .17793 1.1777 179.2 22.4 6576  75
2024 10 05 23  00 46 46.329   +04 15 20.44  .17818 1.1780 179.2 22.4 6795  74
2024 10 06 00  00 46 51.030   +04 14 56.79  .17843 1.1782 179.1 22.4 7023  74
2024 10 06 01  00 46 55.717   +04 14 33.21  .17868 1.1784 179.1 22.4 7261  74
2024 10 06 02  00 47 00.391   +04 14 09.70  .17893 1.1787 179.1 22.5 7508  74
2024 10 06 03  00 47 05.052   +04 13 46.25  .17918 1.1789 179.1 22.5 7767  74
2024 10 06 04  00 47 09.700   +04 13 22.88  .17943 1.1792 179.0 22.5 8037  74
2024 10 06 05  00 47 14.335   +04 12 59.57  .17969 1.1794 179.0 22.5 8320  74
2024 10 06 06  00 47 18.957   +04 12 36.33  .17994 1.1796 179.0 22.5 8616  74
2024 10 06 07  00 47 23.566   +04 12 13.16  .18019 1.1799 179.0 22.5 8926  74
2024 10 06 08  00 47 28.163   +04 11 50.06  .18044 1.1801 178.9 22.5 9251  74
2024 10 06 09  00 47 32.746   +04 11 27.02  .18070 1.1803 178.9 22.5 9593  74
2024 10 06 10  00 47 37.318   +04 11 04.06  .18095 1.1806 178.9 22.5 9953  74
2024 10 06 11  00 47 41.876   +04 10 41.16  .18120 1.1808 178.9 22.5 172'  74
2024 10 06 12  00 47 46.422   +04 10 18.32  .18146 1.1811 178.8 22.5 179'  74
2024 10 06 13  00 47 50.955   +04 09 55.56  .18171 1.1813 178.8 22.5 186'  74
2024 10 06 14  00 47 55.476   +04 09 32.86  .18196 1.1815 178.8 22.5 193'  74
2024 10 06 15  00 47 59.984   +04 09 10.23  .18222 1.1818 178.7 22.5 201'  74
2024 10 06 16  00 48 04.480   +04 08 47.67  .18247 1.1820 178.7 22.5 209'  74
2024 10 06 17  00 48 08.964   +04 08 25.18  .18272 1.1823 178.7 22.5 218'  74
2024 10 06 18  00 48 13.435   +04 08 02.75  .18298 1.1825 178.7 22.5 228'  74
2024 10 06 19  00 48 17.895   +04 07 40.39  .18323 1.1827 178.6 22.6 238'  74
2024 10 06 20  00 48 22.342   +04 07 18.09  .18349 1.1830 178.6 22.6 249'  74